Simultaneous Nadir Overpasses (SNOs) Predictions

Prediction of SNOs between FY3D and AQUA Satellite Orbit:

Table of predicted SNOs for the next 14.0 days since TLE Epoch: 10/10/2020
Index Date (FY3D) Time (FY3D) Lat,Lon (FY3D) SZA (FY3D ) Date (AQUA) Time (AQUA) Lat,Lon (AQUA) SZA (AQUA ) Distance(km) Time Diff (sec)
1 10/11/2020 17:04:43 -50.10, -42.61 52.51 10/11/2020 17:05:54 -50.11, -42.71 52.61 7.51 71
2 10/11/2020 17:53:16 57.44, 128.57 121.16 10/11/2020 17:53:13 57.43, 128.55 121.18 1.76 3
3 10/11/2020 18:39:53 -71.13, -50.33 71.58 10/11/2020 18:38:39 -71.23, -50.83 71.42 21.39 74
4 10/14/2020 10:09:52 56.60,-116.01 122.73 10/14/2020 10:09:54 56.60,-116.04 122.75 1.97 2
5 10/14/2020 10:58:38 -63.40, 56.17 63.33 10/14/2020 10:57:26 -63.39, 56.14 63.21 1.50 72
6 10/17/2020 02:26:55 54.29, -1.40 125.55 10/17/2020 02:27:01 54.29, -1.38 125.53 1.42 6
7 10/17/2020 03:15:08 -62.98, 171.72 62.08 10/17/2020 03:14:01 -62.97, 171.69 61.97 2.03 67
8 10/19/2020 18:43:28 53.68, 114.20 126.87 10/19/2020 18:43:39 53.68, 114.20 126.85 0.40 11
9 10/19/2020 19:32:00 -61.33, -73.69 59.75 10/19/2020 19:30:57 -61.33, -73.67 59.66 1.41 63
10 10/22/2020 11:00:00 53.12,-130.17 128.12 10/22/2020 11:00:16 53.12,-130.18 128.10 1.01 16
